Voltar ao catálogo

BREEZE-KM R/B

AtivoPO
NORAD 43438·ROCKET BODY·🇷🇺 Russia

Lançado Apr 25, 2018 de Plesetsk Cosmodrome

Loading…

Próximas Passagens (próximas 24 horas)

TLE

AtualizadoSource: Space-Track

Época: Sep 14, 2026, 20:22 UTC

1 43438U 18039B   26257.84876942  .00009123  00000-0  21944-3 0  9991
2 43438  98.7014  43.3326 0141754 246.2202 112.4117 15.31771953461183

Acompanhe BREEZE-KM R/B em tempo real com AllMySat

Download on the App Store